Smyrna, TN

11:22 PM CST on December 14, 2017 (GMT -0600)
Smyrna

Weather History for KMQY - June, 2012

Change the Weather History Date:

Saturday, June 16, 2012

  Actual Average Record
Temperature  
Mean Temperature 80 °F -  
Max Temperature 93 °F 82 °F 97 °F (2016)
Min Temperature 68 °F 66 °F 57 °F (2002)
Cooling Degree Days 14    
Growing Degree Days 30 (Base 50)    
Moisture  
Dew Point 65 °F    
Average Humidity 65    
Maximum Humidity 100    
Minimum Humidity 39    
Precipitation  
Precipitation 0.00 in - - ()
Sea Level Pressure  
Sea Level Pressure 30.13 in    
Wind  
Wind Speed 4 mph (SSW)    
Max Wind Speed 14 mph    
Max Gust Speed 16 mph    
Visibility 10 miles    
Events Rain    
Averages and records for this station are not official NWS values.
T = Trace of Precipitation, MM = Missing Value Source: NWS Daily Summary

Daily Weather History Graph

Daily Weather History Graph

Search for Another Location

Airport or City:

Trip Planner

Search our weather history database for the weather conditions in past years. The results will help you decide how hot, cold, wet, or windy it might be!

Date:

Astronomy

Jun. 16, 2012 Rise Set
Actual Time 5:28 AM CDT 8:05 PM CDT
Civil Twilight 4:58 AM CDT 8:35 PM CDT
Nautical Twilight 4:21 AM CDT 9:12 PM CDT
Astronomical Twilight 3:39 AM CDT 9:54 PM CDT
Moon 3:15 AM CDT (6/16) 5:41 PM CDT (6/16)
Length of Visible Light 15h 36m
Length of Day
14h 36m
Waning Crescent, 8% of the Moon is Illuminated
Jun 16
Waning Crescent
Jun 19
New
Jun 26
First Quarter
Jul 3
Full
Jul 10
Last Quarter

Hourly Weather History & Observations

Time (CDT) Temp. Heat Index Dew Point Humidity Pressure Visibility Wind Dir Wind Speed Gust Speed Precip Events Conditions
12:56 AM 72.9 °F - 68.0 °F 85% 30.10 in 10.0 mi Calm Calm - N/A   Clear
1:56 AM 70.0 °F - 68.9 °F 96% 30.11 in 10.0 mi Calm Calm - N/A   Clear
2:56 AM 68.9 °F - 68.9 °F 100% 30.12 in 10.0 mi Calm Calm - N/A   Clear
3:56 AM 70.0 °F - 66.9 °F 90% 30.12 in 10.0 mi Calm Calm - N/A   Clear
4:56 AM 70.0 °F - 66.9 °F 90% 30.14 in 10.0 mi SSE 5.8 mph - N/A   Clear
5:56 AM 70.0 °F - 65.8 °F 87% 30.17 in 10.0 mi South 4.6 mph - N/A   Clear
6:56 AM 72.9 °F - 65.8 °F 79% 30.19 in 10.0 mi South 4.6 mph - N/A   Clear
7:56 AM 77.0 °F - 64.9 °F 66% 30.20 in 10.0 mi Variable 5.8 mph - N/A   Clear
8:56 AM 81.0 °F 81.7 °F 61.0 °F 50% 30.20 in 10.0 mi South 13.8 mph - N/A   Scattered Clouds
9:56 AM 83.8 °F 84.3 °F 61.9 °F 47% 30.19 in 10.0 mi SSW 9.2 mph - N/A   Partly Cloudy
10:56 AM 84.9 °F 85.4 °F 61.9 °F 46% 30.20 in 10.0 mi WSW 10.4 mph - N/A   Mostly Cloudy
11:56 AM 90.0 °F 90.3 °F 61.9 °F 39% 30.18 in 10.0 mi West 8.1 mph - N/A   Partly Cloudy
12:56 PM 88.9 °F 89.7 °F 63.0 °F 42% 30.17 in 10.0 mi Variable 4.6 mph - N/A   Partly Cloudy
1:56 PM 91.9 °F 93.3 °F 63.9 °F 39% 30.15 in 10.0 mi Variable 6.9 mph - N/A   Partly Cloudy
2:56 PM 90.9 °F 92.7 °F 64.9 °F 42% 30.13 in 10.0 mi NW 8.1 mph - N/A   Scattered Clouds
3:56 PM 88.0 °F 90.3 °F 65.8 °F 48% 30.11 in 10.0 mi WSW 9.2 mph - 0.00 in Rain Light Rain
4:56 PM 88.0 °F 89.0 °F 63.9 °F 44% 30.09 in 10.0 mi WSW 4.6 mph - 0.00 in   Clear
5:56 PM 88.9 °F 90.7 °F 64.9 °F 45% 30.08 in 10.0 mi SE 10.4 mph 16.1 mph N/A   Mostly Cloudy
6:56 PM 81.9 °F 83.9 °F 65.8 °F 58% 30.06 in 10.0 mi SSE 11.5 mph - N/A   Partly Cloudy
7:56 PM 79.0 °F - 64.9 °F 62% 30.06 in 10.0 mi Calm Calm - N/A   Clear
8:56 PM 77.0 °F - 65.8 °F 68% 30.07 in 10.0 mi South 4.6 mph - N/A   Clear
9:56 PM 74.8 °F - 66.9 °F 76% 30.09 in 10.0 mi Calm Calm - 0.00 in   Mostly Cloudy
10:56 PM 74.8 °F - 66.9 °F 76% 30.08 in 10.0 mi SE 4.6 mph - N/A   Clear
11:56 PM 72.0 °F - 66.9 °F 84% 30.09 in 10.0 mi Calm Calm - N/A   Clear